Hundvaag 1 weather for Sep 1993
Month no. 75
Obs.
Da.
Temp. Dew Point Precip. Wind
Speed
Wind gusts Cloud cover Press. Humidity Wind dir. Sunny OPT
01.09.1993 11,3   0,5                
02.09.1993 11,3   2,7                
03.09.1993 11,0   3,0                
04.09.1993 10,0   2,0             1  
05.09.1993 10,0   0,0             1  
06.09.1993 10,0   1,3                
07.09.1993 7,4   0,0             1  
08.09.1993 6,3   0,0             1  
09.09.1993 7,7   0,0             1  
10.09.1993 11,0   0,0             1  
11.09.1993 11,9   0,0                
12.09.1993 13,3   0,2             1  
13.09.1993 10,0   1,9             1  
14.09.1993 8,3   0,0             1  
15.09.1993 8,9   0,0                
16.09.1993 4,9   0,0             1  
17.09.1993 2,8   0,0             1  
18.09.1993 5,9   0,0             1  
19.09.1993 8,6   0,0             1  
20.09.1993 9,2   0,0                
21.09.1993 11,8   6,9                
22.09.1993 10,9   25,6                
23.09.1993 10,3   1,0                
24.09.1993 5,0   0,0                
25.09.1993 11,0   0,0                
26.09.1993 9,0   2,1                
27.09.1993 5,2   0,9             1  
28.09.1993 9,9   0,0                
29.09.1993 10,7   0,0                
30.09.1993 9,9   0,0                
                       
Avrg/Sum 9,1   48,1             14